This is the latest recevied weather packets stored in our database for station/object WC0AA15WX. If no packets are shown the sender has not sent any weather packets the latest 10 day(s).
| Time | Temp. | Humidity | Pressure | Rain* | Wind** | Luminosity | Snow |
|---|---|---|---|---|---|---|---|
| 1777493011 | 17.78° C | 52% | 1024.7 hPa | 0 mm | - | - | - |
| 1777492411 | 17.78° C | 50% | 1024.7 hPa | 0 mm | - | - | - |
| 1777491811 | 17.22° C | 53% | 1025.1 hPa | 0 mm | - | - | - |
| 1777491264 | 17.22° C | 51% | 1025.4 hPa | 0 mm | - | - | - |
| 1777491211 | 17.22° C | 51% | 1025.4 hPa | 0 mm | - | - | - |
| 1777490611 | 17.78° C | 48% | 1025.4 hPa | 0 mm | - | - | - |
| 1777490010 | 16.67° C | 53% | 1025.1 hPa | 0 mm | - | - | - |
| 1777489410 | 16.67° C | 52% | 1025.4 hPa | 0 mm | - | - | - |
| 1777488810 | 16.67° C | 58% | 1025.4 hPa | 0 mm | - | - | - |
| 1777488011 | 16.11° C | 57% | 1025.4 hPa | 0 mm | - | - | - |
| 1777487930 | 16.11° C | 57% | 1025.4 hPa | 0 mm | - | - | - |
| 1777487897 | 16.11° C | 57% | 1025.4 hPa | 0 mm | - | - | - |
| 1777487297 | 16.11° C | 57% | 1025.4 hPa | 0 mm | - | - | - |
| 1777486697 | 15.56° C | 58% | 1025.7 hPa | 0 mm | - | - | - |
| 1777486097 | 15.56° C | 60% | 1025.7 hPa | 0 mm | - | - | - |
| 1777485497 | 14.44° C | 60% | 1025.7 hPa | 0 mm | - | - | - |
| 1777484897 | 14.44° C | 61% | 1026.1 hPa | 0 mm | - | - | - |
| 1777484297 | 13.89° C | 62% | 1026.4 hPa | 0 mm | - | - | - |
| 1777483697 | 14.44° C | 62% | 1026.8 hPa | 0 mm | - | - | - |
| 1777483096 | 14.44° C | 61% | 1026.4 hPa | 0 mm | - | - | - |
| 1777482496 | 14.44° C | 63% | 1026.8 hPa | 0 mm | - | - | - |
| 1777481896 | 15° C | 61% | 1026.8 hPa | 0 mm | - | - | - |
| 1777481296 | 13.33° C | 63% | 1026.8 hPa | 0 mm | - | - | - |
| 1777480696 | 12.78° C | 66% | 1027.1 hPa | 0 mm | - | - | - |
| 1777480066 | 12.78° C | 68% | 1026.8 hPa | 0 mm | - | - | - |
* Rain latest hour (hover to see other rain measurements)
** Current wind speed in m/s (hover to see current wind gust speed)